[[{"header":{"parameterUnit":"m.s-1","parameterCategory":1,"la1":30.2991,"la2":30.254,"lo1":-89.0895,"lo2":-89.0444,"dy":0.0017,"dx":0.0017,"nx":28,"ny":28,"refTime":"2024-07-19T09:00:00:Z","depth":0,"parameterNumber":2,"parameterNumberName":"U-component_of_WINDS"},"data":[0,0,0,0,0,0,0,0,0,0,0,0,0,0,0,0,0,0,0,0,0,0,0,0,0,0,0,0,0,0,0,0,0,0,0,0,0,0,0,0,0,0,0,0,0,0,0,0,0,0,0,0,0,0,0,0,0,0,-1.6313,-1.6312,0,-1.6193,-1.6192,-1.6191,-1.6095,-1.6094,-1.6093,-1.6092,-1.5965,-1.5962,-1.596,0,0,0,0,0,0,0,0,0,0,0,0,0,-1.6456,-1.6454,-1.6313,-1.6312,-1.631,-1.6194,-1.6192,-1.619,-1.6095,-1.6094,-1.6092,-1.6091,-1.5966,-1.5963,-1.596,0,0,0,0,0,0,0,0,0,0,0,0,0,-1.6371,-1.6453,-1.6314,-1.6249,-1.6242,-1.6194,-1.6192,-1.619,-1.6095,-1.6093,-1.6092,-1.6091,-1.5967,-1.5963,-1.5959,-1.5965,0,0,-1.5948,-1.5946,0,0,0,0,0,0,0,0,-1.6376,-1.6366,-1.626,-1.6253,-1.6245,-1.6158,-1.6196,-1.6114,-1.6095,-1.6151,-1.6092,-1.609,-1.603,-1.6021,-1.6001,-1.5959,-1.5954,-1.5948,-1.5945,-1.5944,-1.5943,0,0,0,0,0,0,0,-1.6382,-1.637,-1.6266,-1.6258,-1.6249,-1.6224,-1.6211,-1.618,-1.61,-1.6146,-1.6138,-1.6126,-1.6025,-1.6005,-1.5998,-1.5952,-1.5948,-1.5944,-1.5942,-1.5941,-1.5908,-1.5909,0,0,0,0,0,0,-1.6398,-1.6376,-1.627,-1.6262,-1.6308,-1.6223,-1.6208,-1.6187,-1.61,-1.6085,-1.6127,-1.6122,-1.6012,-1.6002,-1.5993,-1.5993,-1.5944,-1.594,-1.5938,-1.5906,-1.5908,-1.5909,0,0,0,0,0,0,-1.6402,-1.639,-1.6274,-1.6317,-1.63,-1.6222,-1.62,-1.6185,-1.6165,-1.6086,-1.6071,-1.6121,-1.6011,-1.5998,-1.5973,-1.5988,-1.5939,-1.5935,-1.5905,-1.5907,-1.5909,-1.5995,0,0,0,0,0,0,-1.6406,-1.6391,-1.6394,-1.6318,-1.6299,-1.6258,-1.6201,-1.6184,-1.6159,-1.6151,-1.6076,-1.6062,-1.6009,-1.5979,-1.5969,-1.5982,-1.5932,-1.5903,-1.5906,-1.5908,-1.5991,-1.6,-1.6008,0,0,0,0,0,-1.6412,-1.6422,-1.6394,-1.6382,-1.63,-1.6259,-1.6248,-1.6187,-1.6161,-1.6162,-1.6111,-1.6065,-1.5988,-1.5977,-1.5965,-1.5977,-1.5902,-1.5905,-1.5908,-1.5987,-1.5998,-1.6008,0,0,0,0,0,0,-1.6501,-1.6411,-1.6379,-1.6366,-1.6321,-1.6243,-1.6243,-1.6201,-1.6162,-1.6155,-1.608,-1.6064,-1.6047,-1.6009,-1.5999,-1.5978,-1.5939,-1.594,-1.6003,-1.6013,-1.6022,-1.6031,-1.5929,0,0,0,0,0,-1.6519,-1.6495,-1.6417,-1.6413,-1.6392,-1.6322,-1.6301,-1.6259,-1.6208,-1.6188,-1.6135,-1.6088,-1.6052,-1.6031,-1.5994,-1.5985,-1.5967,-1.5987,-1.5996,-1.6003,-1.6005,-1.5997,-1.6005,-1.5919,-1.5919,-1.5919,0,0,-1.6556,-1.6504,-1.6493,-1.6429,-1.6389,-1.6365,-1.6306,-1.6282,-1.6263,-1.6184,-1.6158,-1.6117,-1.6058,-1.6042,-1.6031,-1.601,-1.6024,-1.6007,-1.6014,-1.6011,-1.6001,-1.6009,-1.6016,-1.5922,-1.5921,-1.5921,0,0,-1.6611,-1.657,-1.6562,-1.6523,-1.6464,-1.6417,-1.6416,-1.6344,-1.6314,-1.6287,-1.6227,-1.6202,-1.6143,-1.6104,-1.6076,-1.6117,-1.6072,-1.6107,-1.6152,-1.6145,-1.6151,-1.6157,-1.6171,-1.6177,-1.6109,-1.6109,-1.6109,0,-1.6664,-1.6626,-1.6562,-1.6542,-1.6515,-1.6445,-1.6435,-1.6401,-1.6332,-1.6315,-1.6292,-1.6217,-1.6172,-1.6145,-1.6155,-1.6135,-1.613,-1.6115,-1.6156,-1.6161,-1.6165,-1.6177,-1.6183,-1.6113,-1.6113,-1.6112,-1.6112,0,-1.6694,-1.6668,-1.6668,-1.6606,-1.6579,-1.6564,-1.6497,-1.6478,-1.6437,-1.6393,-1.6365,-1.6309,-1.626,-1.625,-1.621,-1.6217,-1.6205,-1.617,-1.6129,-1.6179,-1.6189,-1.6193,-1.612,-1.6118,-1.6117,-1.6116,0,0,-1.6801,-1.6704,-1.6705,-1.6675,-1.6605,-1.6583,-1.6565,-1.6518,-1.6503,-1.6458,-1.644,-1.6392,-1.6359,-1.6328,-1.6283,-1.6277,-1.6312,-1.6242,-1.6239,-1.6256,-1.6315,-1.6342,-1.6348,-1.6282,-1.6283,-1.6283,-1.632,0,-1.6844,-1.6809,-1.6751,-1.6734,-1.6709,-1.6642,-1.6626,-1.658,-1.6538,-1.6509,-1.6462,-1.6429,-1.6389,-1.6369,-1.6361,-1.631,-1.6322,-1.6306,-1.6263,-1.6262,-1.628,-1.6353,-1.6381,-1.6418,-1.6323,-1.6324,-1.6324,0,-1.689,-1.685,-1.6832,-1.6763,-1.675,-1.6737,-1.6689,-1.6663,-1.661,-1.658,-1.6546,-1.6496,-1.6472,-1.6436,-1.6401,-1.6391,-1.637,-1.6342,-1.6342,-1.6335,-1.6296,-1.6348,-1.6429,-1.6434,-1.633,-1.633,-1.6329,0,-1.6969,-1.6911,-1.6892,-1.6869,-1.6789,-1.6781,-1.6747,-1.6693,-1.6668,-1.6626,-1.6609,-1.6565,-1.654,-1.6506,-1.6446,-1.6425,-1.6417,-1.6376,-1.639,-1.6391,-1.639,-1.6391,-1.6468,-1.6378,-1.6378,-1.6378,-1.6378,0,-1.7023,-1.7014,-1.6927,-1.6915,-1.6903,-1.6836,-1.6825,-1.6784,-1.6737,-1.6715,-1.6654,-1.6634,-1.6556,-1.6527,-1.6479,-1.6457,-1.6446,-1.642,-1.6407,-1.6425,-1.6429,-1.641,-1.6405,-1.638,-1.6379,-1.6379,-1.6379,0,-1.711,-1.7051,-1.7026,-1.6953,-1.6934,-1.6928,-1.6864,-1.685,-1.6804,-1.6777,-1.6767,-1.6695,-1.6658,-1.6595,-1.6539,-1.6506,-1.6493,-1.6472,-1.6512,-1.6504,-1.6521,-1.652,-1.6589,-1.6594,-1.6502,-1.6503,-1.6504,0,-1.7148,-1.7139,-1.7066,-1.7047,-1.7016,-1.6987,-1.6962,-1.6896,-1.6873,-1.6812,-1.6804,-1.6762,-1.6726,-1.6669,-1.6611,-1.6567,-1.6544,-1.6571,-1.6537,-1.6555,-1.6543,-1.6545,-1.6543,-1.6579,-1.658,-1.6581,-1.6582,0,-1.7221,-1.7193,-1.716,-1.7117,-1.709,-1.7052,-1.7012,-1.7,-1.6924,-1.6901,-1.6863,-1.6834,-1.6778,-1.6737,-1.6685,-1.6648,-1.6602,-1.6593,-1.6594,-1.6612,-1.6635,-1.6622,-1.6532,-1.6592,-1.6591,-1.659,-1.659,-1.6589,-1.7284,-1.7273,-1.722,-1.7185,-1.7148,-1.7112,-1.7094,-1.7047,-1.7015,-1.6965,-1.6927,-1.6892,-1.6838,-1.6764,-1.673,-1.67,-1.6679,-1.6681,-1.6681,-1.6682,-1.6689,-1.6641,-1.6691,-1.669,-1.669,-1.669,-1.6689,0,-1.7354,-1.7316,-1.7285,-1.7231,-1.7204,-1.7165,-1.7118,-1.7097,-1.7067,-1.7021,-1.6987,-1.6943,-1.6903,-1.6842,-1.6796,-1.6784,-1.6762,-1.6775,-1.6774,-1.6766,-1.671,-1.6714,-1.6793,-1.6793,-1.6793,-1.6793,-1.6793,-1.6793,-1.7387,-1.7366,-1.7332,-1.7292,-1.7254,-1.722,-1.7196,-1.7162,-1.7125,-1.708,-1.7047,-1.7008,-1.6955,-1.6906,-1.6867,-1.685,-1.6836,-1.6855,-1.6831,-1.678,-1.677,-1.6761,-1.6764,-1.6853,-1.6853,-1.6889,-1.689,-1.689]},{"header":{"parameterUnit":"m.s-1","parameterCategory":1,"la1":30.2991,"la2":30.254,"lo1":-89.0895,"lo2":-89.0444,"dy":0.0017,"dx":0.0017,"nx":28,"ny":28,"refTime":"2024-07-19T09:00:00:Z","depth":0,"parameterNumber":3,"parameterNumberName":"V-component_of_WINDS"},"data":[0,0,0,0,0,0,0,0,0,0,0,0,0,0,0,0,0,0,0,0,0,0,0,0,0,0,0,0,0,0,0,0,0,0,0,0,0,0,0,0,0,0,0,0,0,0,0,0,0,0,0,0,0,0,0,0,0,0,3.4461,3.446,0,3.4385,3.4384,3.4383,3.4337,3.4337,3.4337,3.4337,3.4256,3.4254,3.4252,0,0,0,0,0,0,0,0,0,0,0,0,0,3.4565,3.4564,3.4461,3.446,3.4459,3.4385,3.4384,3.4383,3.4337,3.4337,3.4337,3.4336,3.4256,3.4254,3.4252,0,0,0,0,0,0,0,0,0,0,0,0,0,3.4508,3.4563,3.4461,3.4427,3.4424,3.4385,3.4384,3.4383,3.4337,3.4337,3.4337,3.4336,3.4257,3.4254,3.4251,3.4239,0,0,3.4242,3.4241,0,0,0,0,0,0,0,0,3.4511,3.4504,3.4433,3.443,3.4425,3.437,3.4391,3.4335,3.4337,3.437,3.4337,3.4336,3.4294,3.4288,3.4274,3.4236,3.4232,3.4242,3.424,3.4239,3.4238,0,0,0,0,0,0,0,3.4515,3.4507,3.4431,3.4432,3.4428,3.4416,3.4407,3.438,3.4334,3.4367,3.4364,3.4355,3.4291,3.4277,3.4272,3.4231,3.4242,3.4239,3.4238,3.4236,3.4181,3.4181,0,0,0,0,0,0,3.4525,3.451,3.4433,3.4429,3.4468,3.4414,3.4404,3.4388,3.4335,3.4326,3.4356,3.4354,3.4282,3.4275,3.4269,3.4252,3.4239,3.4236,3.4234,3.418,3.4181,3.4181,0,0,0,0,0,0,3.4527,3.4518,3.4436,3.4469,3.4457,3.4413,3.4395,3.4387,3.4372,3.4326,3.4318,3.4349,3.4282,3.4273,3.4248,3.4249,3.4235,3.4232,3.418,3.418,3.4181,3.4219,0,0,0,0,0,0,3.453,3.4519,3.4515,3.4469,3.4456,3.4417,3.4395,3.4386,3.4368,3.4364,3.4318,3.431,3.4281,3.4252,3.4245,3.4244,3.423,3.418,3.418,3.4181,3.4217,3.422,3.4223,0,0,0,0,0,3.4534,3.4527,3.4515,3.4505,3.4449,3.4417,3.4409,3.4377,3.4368,3.4363,3.4334,3.4311,3.425,3.425,3.4241,3.424,3.4179,3.418,3.4181,3.4216,3.422,3.4223,0,0,0,0,0,0,3.4572,3.452,3.4506,3.4484,3.4456,3.4409,3.4401,3.4382,3.4354,3.4352,3.4312,3.4302,3.4281,3.4258,3.4259,3.4227,3.4212,3.4211,3.4242,3.4246,3.4249,3.4254,3.4227,0,0,0,0,0,3.4579,3.4558,3.4513,3.4498,3.4485,3.4446,3.4431,3.4409,3.4377,3.4364,3.4333,3.4302,3.4276,3.426,3.4233,3.4214,3.4204,3.4209,3.4212,3.4215,3.4214,3.4204,3.4206,3.4183,3.4183,3.4183,0,0,3.4591,3.456,3.4549,3.4505,3.4481,3.446,3.4436,3.4414,3.4398,3.436,3.4335,3.4311,3.4275,3.4253,3.4242,3.4233,3.4218,3.4216,3.4218,3.4216,3.4204,3.4207,3.4209,3.4184,3.4183,3.4183,0,0,3.4602,3.4576,3.4562,3.4538,3.4502,3.4476,3.4473,3.443,3.4413,3.4388,3.436,3.434,3.4295,3.4271,3.4253,3.4258,3.4237,3.425,3.4265,3.4256,3.4257,3.4259,3.4261,3.4262,3.425,3.425,3.425,0,3.4621,3.4589,3.4556,3.4537,3.4519,3.4486,3.4471,3.4449,3.4406,3.4394,3.4385,3.4331,3.4304,3.4276,3.4278,3.4264,3.4259,3.4255,3.426,3.4261,3.4262,3.4263,3.4264,3.4252,3.4252,3.4251,3.4251,0,3.4614,3.4593,3.4585,3.4546,3.4527,3.451,3.4475,3.446,3.444,3.4415,3.439,3.4357,3.4324,3.4316,3.4296,3.4286,3.4282,3.4268,3.4252,3.4266,3.4267,3.4267,3.4254,3.4254,3.4253,3.4253,0,0,3.4645,3.459,3.4588,3.457,3.4529,3.4511,3.4493,3.4462,3.445,3.4422,3.4406,3.437,3.4357,3.4337,3.4314,3.4305,3.4312,3.4291,3.429,3.4296,3.4301,3.4312,3.4313,3.4299,3.4299,3.4299,3.4304,0,3.465,3.4617,3.4588,3.4565,3.4545,3.4515,3.4499,3.4472,3.4449,3.4429,3.4403,3.4379,3.4363,3.4351,3.4341,3.4313,3.4312,3.4313,3.4283,3.4282,3.4292,3.4313,3.4324,3.4331,3.4304,3.4304,3.4304,0,3.4651,3.4626,3.4601,3.4563,3.4554,3.454,3.451,3.4491,3.446,3.4444,3.4423,3.44,3.4379,3.4368,3.4339,3.434,3.4326,3.4311,3.4311,3.4306,3.4293,3.4309,3.4332,3.4333,3.4304,3.4304,3.4304,0,3.4676,3.4636,3.4616,3.4602,3.4558,3.4549,3.453,3.4499,3.4483,3.4457,3.4446,3.4418,3.4402,3.4381,3.435,3.4344,3.4325,3.4311,3.4311,3.4312,3.4308,3.4308,3.4329,3.43,3.43,3.43,3.43,0,3.4684,3.467,3.4627,3.4615,3.4599,3.4567,3.4552,3.453,3.4503,3.4486,3.4458,3.4443,3.4404,3.4384,3.4361,3.4341,3.4334,3.4321,3.4314,3.4323,3.4325,3.4313,3.4311,3.43,3.43,3.43,3.43,0,3.4709,3.468,3.4657,3.4617,3.4607,3.4597,3.4563,3.455,3.4527,3.4506,3.45,3.4463,3.4438,3.4407,3.4371,3.4356,3.4339,3.4329,3.435,3.4346,3.4349,3.4349,3.4361,3.4362,3.4334,3.4334,3.4334,0,3.4716,3.4705,3.4665,3.4653,3.4635,3.4614,3.4599,3.4567,3.4551,3.4517,3.4508,3.4482,3.4459,3.4421,3.4391,3.4365,3.4354,3.436,3.435,3.4359,3.4354,3.4355,3.4354,3.4363,3.4363,3.4364,3.4364,0,3.4731,3.4718,3.4696,3.467,3.4653,3.463,3.4606,3.4598,3.4561,3.4545,3.452,3.4503,3.4468,3.4443,3.4413,3.4393,3.4372,3.4368,3.4367,3.4375,3.4387,3.4381,3.4357,3.4367,3.4367,3.4367,3.4367,3.4366,3.4747,3.4736,3.4707,3.4685,3.4664,3.4643,3.463,3.4606,3.4585,3.4555,3.4538,3.4514,3.4485,3.4443,3.4424,3.4405,3.4397,3.4395,3.4395,3.4395,3.4398,3.4391,3.4399,3.4399,3.4399,3.4399,3.4399,0,3.4761,3.4741,3.4721,3.469,3.4672,3.4657,3.463,3.4616,3.4596,3.4571,3.455,3.4522,3.4498,3.4467,3.4441,3.4431,3.4422,3.4426,3.4425,3.4421,3.4406,3.441,3.4434,3.4434,3.4434,3.4434,3.4434,3.4434,3.4766,3.4747,3.4731,3.4702,3.4683,3.466,3.4646,3.4627,3.4607,3.4578,3.4558,3.4539,3.4512,3.4484,3.4461,3.4452,3.4444,3.4451,3.444,3.4425,3.4422,3.4419,3.4423,3.4449,3.4449,3.4457,3.4457,3.4457]}]]